Location: Bacea
(45.9500°N, 22.6667°E)
Time: 21:44:38
(UTC+00:00)

H-2A R/B - Pass Details

Date: 16 October 2021
Orbit: 733 x 837 km, 98.2° (Epoch: 29 November)

Event Time Altitude Azimuth Distance (km) Brightness Sun altitude
Rises 16:43:14 0° 173° (S) 3,301 5.2 -11.5°
Reaches altitude 10° 16:45:33 10° 176° (S) 2,389 4.5 -11.9°
Maximum altitude 16:50:50 67° 259° (WSW) 895 2.6 -12.8°
Drops below altitude 10° 16:56:15 10° 341° (NNW) 2,453 4.9 -13.8°
Sets 16:58:40 0° 345° (NNW) 3,397 5.6 -14.2°
